Regional Weather Roundup
Issued by NWS Northern Indiana

Home | Current Version | Previous Version | Text Only | Print | Product List | Glossary Off
Versions: 1 2 3 4 5 6 7 8 9 10 11 12 13 14 15 16 17 18 19 20 21 22 23 24 25 26 27 28 29 30 31 32 33 34 35 36 37 38 39 40 41 42 43 44 45 46 47 48 49 50

205
ASUS43 KIWX 260510
RWRIWX

KIWX WEATHER ROUNDUP
NATIONAL WEATHER SERVICE NORTHERN INDIANA
1200 AM EST SUN FEB 26 2017

NOTE: "FAIR" INDICATES FEW OR NO CLOUDS BELOW 12,000 FEET WITH NO
SIGNIFICANT WEATHER AND/OR OBSTRUCTIONS TO VISIBILITY.

* THESE STATIONS ARE NOT UNDER NWS QUALITY CONTROL. THEY ALSO MAY NOT
  REPORT WEATHER SUCH AS PRECIPITATION OR FOG.

INZ001>027-260600-
NORTHERN INDIANA

CITY           SKY/WX    TMP DP  RH WIND       PRES   REMARKS
GARY*          CLEAR     26  13  59 W7        30.06S WCI  18
VALPARAISO     PTCLDY    23  15  71 W6        30.05R WCI  16
MICHIGAN CITY* CLOUDY    28  16  59 NW9       30.05R WCI  20
LAPORTE*       CLOUDY    26  15  63 W7        30.04R WCI  18
KNOX*          CLOUDY    27  -2  28 W10       30.04S WCI  17
SOUTH BEND     CLOUDY    25  15  66 NW10      30.02R WCI  15
GOSHEN         CLOUDY    26  16  65 W9        30.01R WCI  17
MONTICELLO*    CLEAR     25  17  73 W6        30.06R WCI  18
LOGANSPORT*    PTCLDY    27  19  74 W6        30.06R WCI  20
ROCHESTER*     CLOUDY    30  16  55 W9G18     30.04R WCI  22
ANGOLA*        CLOUDY    25  19  80 W5        29.98S WCI  19
FORT WAYNE     FLURRIES  27  18  69 W12G20    30.02R WCI  17
HUNTINGTON*    CLOUDY    26  15  62 W7        30.03R WCI  18
PERU/GRISSOM   CLOUDY    26  18  71 W12       30.03R WCI  16
MARION*        CLOUDY    27  18  69 W15       30.05R WCI  15

$$
INZ028>050-260600-
CENTRAL INDIANA

CITY           SKY/WX    TMP DP  RH WIND       PRES   REMARKS
LAFAYETTE      CLEAR     23  18  81 W6        30.08R WCI  16
KOKOMO*        CLOUDY    25  18  74 W12       30.05R WCI  14
MUNCIE*        CLOUDY    27  17  66 W10       30.03R WCI  17
INDIANAPOLIS   PTCLDY    25  16  68 W9        30.07R WCI  15

$$
MIZ043>046-050>051-056>058-064>065-071>073-077>080-260600-
SOUTHWEST LOWER MICHIGAN

CITY           SKY/WX    TMP DP  RH WIND       PRES   REMARKS
BATTLE CREEK   CLOUDY    23  18  81 W8        29.97S WCI  14
BENTON HARBOR  CLOUDY    27  15  61 W9        30.02R WCI  18
COLDWATER*     LGT SNOW  23  20  88 W5        29.98S WCI  17
HILLSDALE*     FLURRIES  23  18  80 W12       29.96R WCI  12
HOLLAND        CLOUDY    27  15  61 NW6       29.99R WCI  20
GRAND RAPIDS   FLURRIES  25  16  68 W9        29.96R WCI  15
KALAMAZOO      CLOUDY    24  16  71 W7        29.98S WCI  16
STURGIS*       FLURRIES  23  20  85 CALM      29.99R
THREE RIVERS*  FLURRIES  24  19  83 CALM      30.00S

$$
OHZ001>008-015>018-024>025-260600-
NORTHWEST OHIO

CITY           SKY/WX    TMP DP  RH WIND       PRES   REMARKS
WAUSEON*       FLURRIES  25  18  74 W13G23    30.00R WCI  13
DEFIANCE       CLOUDY    25  15  66 VRB6      30.02R WCI  18
FINDLAY        CLOUDY    27  18  69 W8        30.00R WCI  19
TOLEDO EXPRESS CLOUDY    25  16  68 W12G22    30.00R WCI  14
TOLEDO METCALF FLURRIES  26  17  68 NW13      30.02R WCI  15
LIMA           CLOUDY    27  19  72 W12       30.01R WCI  17

$$
AND FOR LAKE MICHIGAN COASTAL AND OPEN LAKE BUOY OBSERVATIONS

STATION/POSITION TEMP    WIND        PRES    VSBY  WAVE
                 AIR SEA DIR/SP/G                  HT/PER
                 (F)     (DEG/KT/KT) (MB)    (MI)  (FT/S)
CALUMET HARBOR    25     250/  3/ 10 1017.0R
MICHIGAN CITY     27     260/ 16/ 17   N/A
BURNS HARBOR      28     290/ 14/ 19 1017.6R
SAINT JOSEPH      29     300/ 13/ 17 1016.6

$$
&&




USA.gov is the U.S. government's official web portal to all federal, state and local government web resources and services.